Simultaneous Nadir Overpasses (SNOs) Predictions

Prediction of SNOs between METOP-A and NOAA-19 Satellite Orbit:

Table of predicted SNOs for the next 14.0 days since TLE Epoch: 9/9/2016
Index Date (METOP-A) Time (METOP-A) Lat,Lon (METOP-A) SZA (METOP-A ) Date (NOAA-19) Time (NOAA-19) Lat,Lon (NOAA-19) SZA (NOAA-19 ) Distance(km) Time Diff (sec)
1 09/13/2016 18:43:58 -76.42, 80.42 107.06 09/13/2016 18:42:45 -76.44, 80.39 107.04 2.42 73
2 09/13/2016 19:34:38 76.42,-112.23 72.97 09/13/2016 19:33:41 76.42,-112.26 72.96 0.94 57
3 09/13/2016 20:25:20 -76.40, 55.02 107.05 09/13/2016 20:24:46 -76.40, 55.04 107.05 0.81 34
4 09/13/2016 21:16:00 76.40,-137.64 72.97 09/13/2016 21:15:42 76.38,-137.61 72.95 3.22 18
5 09/13/2016 22:06:42 -76.38, 29.61 107.04 09/13/2016 22:06:48 -76.40, 29.53 107.02 2.93 6
6 09/13/2016 22:57:22 76.39,-163.04 72.98 09/13/2016 22:57:44 76.38,-163.12 72.97 2.34 22
7 09/13/2016 23:48:04 -76.36, 4.21 107.03 09/13/2016 23:48:49 -76.36, 4.18 107.04 0.96 45
8 09/14/2016 00:38:44 76.37, 171.56 72.99 09/14/2016 00:39:45 76.34, 171.53 72.96 3.60 61
9 09/14/2016 01:29:35 -75.94, -22.62 107.45 09/14/2016 01:30:42 -75.96, -19.86 107.38 74.70 67




NCC Satellite Simultaneous Nadir Overpasses (SNOs) Prediction Service
